This demonstration page uses our WeatherBlox Daily Observations layout. Learn more.

Hourly Observations for February 13, 2020

Temp ( °F °C ) Dew Point ( °F °C ) Humidity (%) Winds ( mph kmh ) Pressure ( in mb ) Visibility ( mi km ) Precip ( " mm )
12:54 am 00:54 Clear 2 -16.7 -9 -22.8 59 59 NNW 18 30 30.36 1028 10 16.0934 0 0
1:54 am 01:54 Clear 2 -16.7 -10 -23.3 57 57 NNW 16 26 30.37 1029 10 16.0934 0 0
2:54 am 02:54 Clear 1 -17.2 -11 -23.9 56 56 NNW 17 28 30.39 1029 10 16.0934 0 0
3:54 am 03:54 Clear 1 -17.2 -12 -24.4 54 54 NNW 20 31 30.39 1029 10 16.0934 0 0
4:54 am 04:54 Clear 0 -17.8 -12 -24.4 57 57 NNW 17 28 30.43 1031 10 16.0934 0 0
5:54 am 05:54 Clear -1 -18.3 -13 -25 56 56 N 16 26 30.47 1032 10 16.0934 0 0
6:54 am 06:54 Clear -1 -18.3 -12 -24.4 59 59 NNW 12 19 30.5 1033 10 16.0934 0 0
7:54 am 07:54 Sunny -1 -18.3 -13 -25 56 56 NNW 17 28 30.54 1034 10 16.0934 0 0
8:54 am 08:54 Sunny 1 -17.2 -12 -24.4 54 54 N 15 24 30.56 1035 10 16.0934 0 0
9:54 am 09:54 Sunny 4 -15.6 -11 -23.9 49 49 N 14 22 30.58 1036 10 16.0934 0 0
10:54 am 10:54 Sunny 6 -14.4 -10 -23.3 47 47 N 12 19 30.59 1036 10 16.0934 0 0
11:54 am 11:54 Sunny 10 -12.2 -8 -22.2 43 43 NNW 14 22 30.59 1036 10 16.0934 0 0
12:54 pm 12:54 Sunny 12 -11.1 -7 -21.7 42 42 undefined N/A 30.57 1035 10 16.0934 0 0
1:54 pm 13:54 Sunny 14 -10 -8 -22.2 36 36 N 7 11 30.55 1035 10 16.0934 0 0
2:54 pm 14:54 Sunny 15 -9.4 -8 -22.2 35 35 NNE 8 13 30.54 1034 10 16.0934 0 0
3:54 pm 15:54 Sunny 16 -8.9 -8 -22.2 33 33 VRB 6 9 30.53 1034 10 16.0934 0 0
4:54 pm 16:54 Sunny 16 -8.9 -8 -22.2 33 33 NE 3 6 30.54 1034 10 16.0934 0 0
5:54 pm 17:54 Sunny 11 -11.7 -7 -21.7 44 44 NNE 5 7 30.55 1034 10 16.0934 0 0
6:54 pm 18:54 Clear 8 -13.3 -6 -21.1 52 52 NNE 5 7 30.56 1035 10 16.0934 0 0
7:54 pm 19:54 Clear 9 -12.8 -5 -20.6 52 52 Calm 30.57 1035 10 16.0934 0 0
8:54 pm 20:54 Clear 9 -12.8 -3 -19.4 58 58 Calm 30.57 1035 10 16.0934 0 0
9:54 pm 21:54 Clear 6 -14.4 -4 -20 63 63 SSE 6 9 30.58 1036 10 16.0934 0 0
10:54 pm 22:54 Clear 5 -15 -4 -20 66 66 SSE 7 11 30.58 1035 10 16.0934 0 0
11:54 pm 23:54 Clear 5 -15 -3 -19.4 69 69 SSE 9 15 30.55 1035 10 16.0934 0 0

Powered by AerisWeather